This is the latest recevied weather packets stored in our database for station/object KQ4LLM. If no packets are shown the sender has not sent any weather packets the latest 10 day(s).
| Time | Temp. | Humidity | Pressure | Rain* | Wind** | Luminosity | Snow |
|---|---|---|---|---|---|---|---|
| 1777781003 | 11.67° C | 52% | - | 0 mm | - | - | - |
| 1777780700 | 11.67° C | 51% | - | 0 mm | - | - | - |
| 1777780397 | 11.67° C | 53% | - | 0 mm | - | - | - |
| 1777780094 | 11.67° C | 53% | - | 0 mm | - | - | - |
| 1777779791 | 11.67° C | 54% | - | 0 mm | - | - | - |
| 1777779489 | 11.11° C | 55% | - | 0 mm | - | - | - |
| 1777779186 | 10.56° C | 57% | - | 0 mm | - | - | - |
| 1777778884 | 10° C | 57% | - | 0 mm | - | - | - |
| 1777778583 | 10° C | 63% | - | 0 mm | - | - | - |
| 1777778279 | 10.56° C | 63% | - | 0 mm | - | - | - |
| 1777777978 | 10.56° C | 64% | - | 0 mm | - | - | - |
| 1777777673 | 10.56° C | 63% | - | 0 mm | - | - | - |
| 1777777370 | 11.11° C | 64% | - | 0 mm | - | - | - |
| 1777777067 | 11.11° C | 61% | - | 0 mm | - | - | - |
| 1777776764 | 11.11° C | 53% | - | 0 mm | - | - | - |
| 1777776461 | 11.67° C | 53% | - | 0 mm | - | - | - |
| 1777776158 | 11.67° C | 53% | - | 0 mm | - | - | - |
| 1777775855 | 12.22° C | 57% | - | 0 mm | - | - | - |
| 1777775552 | 12.22° C | 51% | - | 0 mm | - | - | - |
| 1777775248 | 12.78° C | 50% | - | 0 mm | - | - | - |
| 1777774948 | 12.78° C | 52% | - | 0 mm | - | - | - |
| 1777774645 | 13.33° C | 51% | - | 0 mm | - | - | - |
| 1777774341 | 13.89° C | 47% | - | 0 mm | - | - | - |
| 1777774039 | 13.89° C | 47% | - | 0 mm | - | - | - |
| 1777773736 | 13.89° C | 43% | - | 0 mm | - | - | - |
* Rain latest hour (hover to see other rain measurements)
** Current wind speed in m/s (hover to see current wind gust speed)